TimeEST,TemperatureF,Dew PointF,Humidity,Sea Level PressureIn,VisibilityMPH,Wind Direction,Wind SpeedMPH,Gust SpeedMPH,PrecipitationIn,Events,Conditions,WindDirDegrees,DateUTC
12:53 AM,23.0,21.0,92,30.37,10.0,Calm,Calm,-,N/A,,Clear,0,2012-11-16 05:53:00
1:53 AM,24.1,21.0,88,30.37,10.0,Calm,Calm,-,N/A,,Clear,0,2012-11-16 06:53:00
2:53 AM,21.9,19.0,89,30.37,10.0,Calm,Calm,-,N/A,,Clear,0,2012-11-16 07:53:00
3:53 AM,21.9,19.9,92,30.38,10.0,Calm,Calm,-,N/A,,Clear,0,2012-11-16 08:53:00
4:53 AM,21.9,19.0,89,30.39,10.0,Calm,Calm,-,N/A,,Clear,0,2012-11-16 09:53:00
5:53 AM,21.9,19.0,89,30.40,10.0,Calm,Calm,-,N/A,,Clear,0,2012-11-16 10:53:00
6:53 AM,21.0,18.0,88,30.41,10.0,Calm,Calm,-,N/A,,Clear,0,2012-11-16 11:53:00
7:53 AM,23.0,21.0,92,30.43,10.0,Calm,Calm,-,N/A,,Clear,0,2012-11-16 12:53:00
8:53 AM,26.1,21.9,84,30.43,10.0,Calm,Calm,-,N/A,,Clear,0,2012-11-16 13:53:00
9:53 AM,30.0,27.0,88,30.44,10.0,Calm,Calm,-,N/A,,Clear,0,2012-11-16 14:53:00
10:53 AM,34.0,27.0,75,30.44,10.0,West,5.8,-,N/A,,Clear,280,2012-11-16 15:53:00
11:53 AM,39.0,26.1,60,30.42,10.0,WNW,5.8,-,N/A,,Clear,300,2012-11-16 16:53:00
12:53 PM,43.0,25.0,49,30.41,10.0,WNW,6.9,-,N/A,,Clear,290,2012-11-16 17:53:00
1:53 PM,45.0,25.0,46,30.40,10.0,Variable,4.6,-,N/A,,Clear,0,2012-11-16 18:53:00
2:53 PM,46.0,26.1,46,30.40,10.0,WNW,5.8,-,N/A,,Clear,290,2012-11-16 19:53:00
3:53 PM,44.1,27.0,51,30.43,10.0,West,6.9,-,N/A,,Clear,270,2012-11-16 20:53:00
4:53 PM,39.9,27.0,60,30.44,10.0,Calm,Calm,-,N/A,,Clear,0,2012-11-16 21:53:00
5:53 PM,36.0,27.0,70,30.46,10.0,NW,3.5,-,N/A,,Clear,320,2012-11-16 22:53:00
6:53 PM,30.0,26.1,85,30.48,10.0,Calm,Calm,-,N/A,,Clear,0,2012-11-16 23:53:00
7:53 PM,30.0,25.0,82,30.50,10.0,Calm,Calm,-,N/A,,Clear,0,2012-11-17 00:53:00
8:53 PM,30.0,26.1,85,30.52,10.0,Calm,Calm,-,N/A,,Clear,0,2012-11-17 01:53:00
9:53 PM,28.0,25.0,88,30.53,10.0,Calm,Calm,-,N/A,,Clear,0,2012-11-17 02:53:00
10:53 PM,27.0,23.0,85,30.53,10.0,Calm,Calm,-,N/A,,Clear,0,2012-11-17 03:53:00
11:53 PM,27.0,24.1,89,30.53,10.0,Calm,Calm,-,N/A,,Clear,0,2012-11-17 04:53:00